This is the latest recevied weather packets stored in our database for station/object RN1M-13. If no packets are shown the sender has not sent any weather packets the latest 10 day(s).
| Time | Temp. | Humidity | Pressure | Rain* | Wind** | Luminosity | Snow |
|---|---|---|---|---|---|---|---|
| 1787741569 | 21.67° C | 100% | 1022 hPa | - | - | - | - |
| 1787741529 | 21.67° C | 100% | 1022 hPa | - | - | - | - |
| 1787740629 | 20.56° C | 100% | 1022 hPa | - | - | - | - |
| 1787739729 | 20° C | 100% | 1022.5 hPa | - | - | - | - |
| 1787738829 | 20.56° C | 100% | 1022.1 hPa | - | - | - | - |
| 1787737929 | 20.56° C | 100% | 1022.3 hPa | - | - | - | - |
| 1787737029 | 19.44° C | 100% | 1022.6 hPa | - | - | - | - |
| 1787736129 | 20.56° C | 100% | 1022.2 hPa | - | - | - | - |
| 1787735229 | 20.56° C | 100% | 1022.8 hPa | - | - | - | - |
| 1787734331 | 20° C | 100% | 1022.5 hPa | - | - | - | - |
| 1787733433 | 19.44° C | 100% | 1023 hPa | - | - | - | - |
| 1787732540 | 19.44° C | 100% | 1023 hPa | - | - | - | - |
| 1787731633 | 19.44° C | 100% | 1023.1 hPa | - | - | - | - |
| 1787730733 | 19.44° C | 100% | 1023 hPa | - | - | - | - |
| 1787729832 | 19.44° C | 100% | 1022.5 hPa | - | - | - | - |
| 1787728932 | 18.89° C | 100% | 1022.3 hPa | - | - | - | - |
| 1787728032 | 18.33° C | 100% | 1022.4 hPa | - | - | - | - |
| 1787727132 | 18.33° C | 100% | 1022 hPa | - | - | - | - |
| 1787726232 | 18.33° C | 100% | 1021.9 hPa | - | - | - | - |
| 1787725332 | 17.78° C | 100% | 1022.4 hPa | - | - | - | - |
| 1787724432 | 17.78° C | 100% | 1022.8 hPa | - | - | - | - |
| 1787723534 | 16.67° C | 100% | 1022.5 hPa | - | - | - | - |
| 1787722634 | 17.78° C | 100% | 1022.6 hPa | - | - | - | - |
| 1787721734 | 17.78° C | 100% | 1022.9 hPa | - | - | - | - |
| 1787720834 | 16.67° C | 100% | 1023.4 hPa | - | - | - | - |
* Rain since midnight (hover to see other rain measurements)
** Current wind speed in m/s (hover to see current wind gust speed)